Tracking 30995 objects as of 5-Jul-2025
HD Live streaming from Space Station
objects crossing your sky now

STARLINK-3680

Track STARLINK-3680 now!
10-day predictions
STARLINK-3680 is classified as:


NORAD ID: 51969
Int'l Code: 2022-025P
Perigee: 553.1 km
Apogee: 555.7 km
Inclination: 53.1 °
Period: 95.6 minutes
Semi major axis: 6925 km
RCS: Unknown
Launch date: March 9, 2022
Source: United States (US)
Launch site: AIR FORCE EASTERN TEST RANGE (AFETR)
Your satellite tracking list
FENGYUN 1C DEB
Track 1 satellite(s)




NASA's NSSDC Master Catalog

Two Line Element Set (TLE):
1 51969U 22025P   25186.62546093 -.00000609  00000-0 -21985-4 0  9994
2 51969  53.0561  56.3420 0001854  92.8868 267.2333 15.06393698183728
Source of the keplerian elements: AFSPC